User: anonymous   Login
Location: North Runcton
(52.7000°N, 0.4333°E)
Time: 10:30:25
(UTC+00:00)
Language:

Cosmos 1697 Rocket - Orbit

View from above orbital plane
View from above orbital plane
View from above satellite
View from above satellite

Ground track
Ground track

The orbit data is extracted from the following two-line orbital elements,

1 16182U 85097B   25189.04912510 -.00000217  00000-0 -84892-4 0  9991
2 16182  71.0039 295.5705 0009834 270.0313 262.4362 14.16556052 52897
Epoch (UTC): 08 July 2025 01:10:44
Eccentricity: 0.0009834
inclination: 71.0039°
perigee height: 830 km
apogee height: 844 km
right ascension of ascending node: 295.5705°
argument of perigee: 270.0313°
revolutions per day: 14.16556052
mean anomaly at epoch: 262.4362°
orbit number at epoch: 5289

The dashed part of the orbit path shows where the satellite is in the earth's shadow,  

DLR